Powrót do katalogu

STARLINK-31543

AktywnyŁącznośćVLEO
NORAD 59402·PAYLOAD·🇺🇸 United States

Wystrzelony Apr 5, 2024 z Cape Canaveral Space Force Station

Loading…

Następne Przeloty (najbliższe 24 godziny)

TLE

ŚwieżeSource: CelesTrak SupGP

Epoka: Sep 14, 2026, 22:25 UTC

1 59402C 24064E   26257.93451389  .00056452  00000+0  20448-2 0  2578
2 59402  43.0031  67.6245 0001138 270.5433 172.4551 15.27548654    13

Śledź STARLINK-31543 w czasie rzeczywistym z AllMySat

Download on the App Store